ガン彗星

65P/Gunn (2017)

English version
Home page
Updated on August 6, 2017

---------------------------------------------------------------------

・ プロフィール

・ 写真集

・ 軌道要素

Epoch 2017 Oct. 14.0 TT = JDT 2458040.5
T 2017 Oct. 16.79951 TT                                 MPCW
q   2.9100412            (2000.0)            P               Q
n   0.12895913     Peri.  213.53838     +0.09059857     +0.98586007
a   3.8800262      Node    62.01970     -0.87503796     +0.14638782
e   0.2499944      Incl.    9.18521     -0.47550022     -0.08155072
P   7.64
From 3768 observations 1997 June 11-2017 May 6, mean residual 0".8.
     Nongravitational parameters A1 = +1.31, A2 = +0.2564.

・ 星図

・ 光度変化

        m1 = 6.8 + 5 logΔ + 12.0 log r

---------------------------------------------------------------------

軌道要素はM.P.E.C. 2017-J52に掲載されたものです。
星図はステラナビゲータ Ver.8 (アストロアーツ) で作成したものです。
光度グラフはComet for Windowsで作成したものです。

---------------------------------------------------------------------

Copyright(C) Seiichi Yoshida (comet@aerith.net). All rights reserved.